Time,TemperatureF,DewpointF,PressureIn,WindDirection,WindDirectionDegrees,WindSpeedMPH,WindSpeedGustMPH,Humidity,HourlyPrecipIn,Conditions,Clouds,dailyrainin,SoftwareType,DateUTC
2013-02-05 00:00:00,10.2,10.2,20.00,West,262,6.0,18.0,100,0.00,,---,0.00,VWS V13.00,2013-02-05 05:00:00,
2013-02-05 00:30:00,9.7,9.7,19.99,WNW,292,4.0,16.0,100,0.00,,---,0.00,VWS V13.00,2013-02-05 05:30:00,
2013-02-05 01:00:00,9.5,9.5,19.99,West,271,1.0,12.0,100,0.00,,---,0.00,VWS V13.00,2013-02-05 06:00:00,
2013-02-05 01:30:00,9.7,9.7,19.99,WNW,287,1.0,12.0,100,0.00,,---,0.00,VWS V13.00,2013-02-05 06:30:00,
2013-02-05 02:00:00,9.7,9.7,20.00,WNW,288,2.0,7.0,100,0.00,,---,0.00,VWS V13.00,2013-02-05 07:00:00,
2013-02-05 02:30:00,8.9,8.9,19.99,West,279,2.0,7.0,100,0.00,,---,0.00,VWS V13.00,2013-02-05 07:30:00,
2013-02-05 03:00:00,9.1,9.1,19.99,West,279,0.0,6.0,100,0.00,,---,0.00,VWS V13.00,2013-02-05 08:00:00,
2013-02-05 03:30:00,8.7,8.7,20.00,West,279,0.0,2.0,100,0.00,,---,0.00,VWS V13.00,2013-02-05 08:30:00,
2013-02-05 04:30:00,7.7,7.7,19.99,West,279,2.0,3.0,100,0.00,,---,0.00,VWS V13.00,2013-02-05 09:30:00,
2013-02-05 05:00:00,7.4,7.4,20.00,West,280,1.0,4.0,100,0.00,,---,0.00,VWS V13.00,2013-02-05 10:00:00,
2013-02-05 05:30:00,7.0,7.0,19.99,West,279,0.0,4.0,100,0.00,,---,0.00,VWS V13.00,2013-02-05 10:30:00,
2013-02-05 06:00:00,6.9,6.9,19.99,West,279,0.0,3.0,100,0.00,,---,0.00,VWS V13.00,2013-02-05 11:00:00,
2013-02-05 06:30:00,7.2,7.2,20.00,West,279,0.0,3.0,100,0.00,,---,0.00,VWS V13.00,2013-02-05 11:30:00,
2013-02-05 07:00:00,6.1,6.1,19.99,West,279,1.0,2.0,100,0.00,,---,0.00,VWS V13.00,2013-02-05 12:00:00,
2013-02-05 07:30:00,7.1,7.1,19.99,West,279,1.0,3.0,100,0.00,,---,0.00,VWS V13.00,2013-02-05 12:30:00,
2013-02-05 08:00:00,9.1,9.1,19.99,West,279,1.0,3.0,100,0.00,,---,0.00,VWS V13.00,2013-02-05 13:00:00,
2013-02-05 08:30:00,10.1,10.1,20.00,West,279,0.0,4.0,100,0.00,,---,0.00,VWS V13.00,2013-02-05 13:30:00,
2013-02-05 09:00:00,10.4,10.4,19.99,West,279,0.0,5.0,100,0.00,,---,0.00,VWS V13.00,2013-02-05 14:00:00,
2013-02-05 09:30:00,11.9,11.9,19.99,West,279,0.0,4.0,100,0.00,,---,0.00,VWS V13.00,2013-02-05 14:30:00,
2013-02-05 10:00:00,13.3,13.3,19.99,West,261,3.0,7.0,100,0.00,,---,0.00,VWS V13.00,2013-02-05 15:00:00,
2013-02-05 10:30:00,14.3,14.3,19.99,West,279,5.0,11.0,100,0.00,,---,0.00,VWS V13.00,2013-02-05 15:30:00,
2013-02-05 11:00:00,16.3,16.3,19.99,West,264,7.0,10.0,100,0.00,,---,0.00,VWS V13.00,2013-02-05 16:00:00,
2013-02-05 11:30:00,16.4,16.4,19.99,NW,325,4.0,14.0,100,0.00,,---,0.00,VWS V13.00,2013-02-05 16:30:00,
2013-02-05 12:00:00,17.8,17.8,20.00,West,268,1.0,13.0,100,0.00,,---,0.00,VWS V13.00,2013-02-05 17:00:00,
2013-02-05 12:30:00,18.5,18.5,19.99,NW,306,5.0,11.0,100,0.00,,---,0.00,VWS V13.00,2013-02-05 17:30:00,
2013-02-05 13:00:00,18.5,18.5,20.00,NNW,328,8.0,11.0,100,0.00,,---,0.00,VWS V13.00,2013-02-05 18:00:00,
2013-02-05 13:30:00,20.1,20.1,19.99,West,277,6.0,10.0,100,0.00,,---,0.00,VWS V13.00,2013-02-05 18:30:00,
2013-02-05 14:00:00,22.1,22.1,19.99,NNW,343,3.0,9.0,100,0.00,,---,0.00,VWS V13.00,2013-02-05 19:00:00,
2013-02-05 14:30:00,21.2,21.2,19.99,NNW,332,5.0,7.0,100,0.00,,---,0.00,VWS V13.00,2013-02-05 19:30:00,
2013-02-05 15:00:00,22.8,22.8,20.00,West,278,0.0,8.0,100,0.00,,---,0.00,VWS V13.00,2013-02-05 20:00:00,
2013-02-05 15:30:00,22.3,22.3,19.99,West,262,3.0,9.0,100,0.00,,---,0.00,VWS V13.00,2013-02-05 20:30:00,
2013-02-05 16:00:00,21.7,21.7,19.99,West,261,2.0,5.0,100,0.00,,---,0.00,VWS V13.00,2013-02-05 21:00:00,
2013-02-05 16:30:00,21.2,21.2,19.99,West,261,0.0,4.0,100,0.00,,---,0.00,VWS V13.00,2013-02-05 21:30:00,
2013-02-05 17:00:00,20.1,20.1,19.99,West,261,1.0,3.0,100,0.00,,---,0.00,VWS V13.00,2013-02-05 22:00:00,
2013-02-05 17:30:00,19.1,19.1,19.99,West,261,1.0,3.0,100,0.00,,---,0.00,VWS V13.00,2013-02-05 22:30:00,
2013-02-05 18:00:00,19.1,19.1,19.99,West,262,0.0,3.0,100,0.00,,---,0.00,VWS V13.00,2013-02-05 23:00:00,
2013-02-05 18:30:00,19.0,19.0,19.99,West,262,0.0,0.0,100,0.00,,---,0.00,VWS V13.00,2013-02-05 23:30:00,
2013-02-05 19:00:00,18.7,18.7,19.99,West,261,0.0,2.0,100,0.00,,---,0.00,VWS V13.00,2013-02-06 00:00:00,
2013-02-05 19:30:00,18.6,18.6,20.00,West,261,0.0,2.0,100,0.00,,---,0.00,VWS V13.00,2013-02-06 00:30:00,
2013-02-05 20:00:00,18.9,18.9,19.99,WSW,245,0.0,4.0,100,0.00,,---,0.00,VWS V13.00,2013-02-06 01:00:00,
2013-02-05 20:30:00,19.7,19.7,19.99,WSW,244,0.0,3.0,100,0.00,,---,0.00,VWS V13.00,2013-02-06 01:30:00,
2013-02-05 21:00:00,18.2,18.2,19.99,SW,233,0.0,3.0,100,0.00,,---,0.00,VWS V13.00,2013-02-06 02:00:00,
2013-02-05 21:30:00,17.6,17.6,19.99,SSE,168,0.0,4.0,100,0.00,,---,0.00,VWS V13.00,2013-02-06 02:30:00,
2013-02-05 22:00:00,17.3,17.3,19.99,SE,140,3.0,6.0,100,0.00,,---,0.00,VWS V13.00,2013-02-06 03:00:00,
2013-02-05 22:30:00,17.6,17.6,19.99,SE,137,1.0,7.0,100,0.00,,---,0.00,VWS V13.00,2013-02-06 03:30:00,
2013-02-05 23:00:00,17.4,17.4,19.99,SE,136,0.0,5.0,100,0.00,,---,0.00,VWS V13.00,2013-02-06 04:00:00,
2013-02-05 23:30:00,17.6,17.6,19.99,SE,136,0.0,4.0,100,0.00,,---,0.00,VWS V13.00,2013-02-06 04:30:00,